Location: Gouvernes
(48.8601°N, 2.6907°E)
Time: 16:09:54
(UTC+00:00)

SJ-11-01 - Pass Details

Date: 16 October 2021
Orbit: 685 x 700 km, 97.9° (Epoch: 29 November)

Event Time Altitude Azimuth Distance (km) Brightness Sun altitude
Rises 17:45:24 0° 154° (SSE) 3,043 7.4 -8.6°
Reaches altitude 10° 17:47:38 10° 151° (SSE) 2,133 6.6 -9.0°
Maximum altitude 17:52:14 62° 72° (ENE) 780 4.3 -9.8°
Drops below altitude 10° 17:56:54 10° 352° (N) 2,158 6.9 -10.5°
Sets 17:59:10 0° 350° (N) 3,082 7.8 -10.9°
